Hourly Data Report for October 08, 2013

All times are specified in Local Standard Time (LST). Add 1 hour to adjust for Daylight Saving Time where and when it is observed.

IQALUIT CLIMATE
NUNAVUT

63°44'50.000" N
68°32'40.000" W
33.50 m
2402592
71321
XFB

Download Data

Hourly Data (October 2013)
Hourly Data Report for October 8, 2013
Temp Definition
°C
Dew Point Temp Definition
°C
Rel Hum Definition
%
Wind Dir Definition
10's deg

Wind Spd Definition
km/h
Visibility Definition
km
Stn Press Definition
kPa
Hmdx Definition


Wind Chill Definition


Weather Definition


TIME
00:00 0.5 0.0 96 10 39   99.59     LegendNANA
01:00 0.6 0.6 100 9 48   99.31     LegendNANA
02:00 0.4 0.4 100 9 54   99.16     LegendNANA
03:00 0.6 0.6 100 9 56   98.95     LegendNANA
04:00 0.7 0.7 100 8 46   98.80     LegendNANA
05:00 0.8 0.8 100 9 43   98.66     LegendNANA
06:00 0.2 0.2 100 9 52   98.49     LegendNANA
07:00 0.3 0.3 100 8 56   98.27     LegendNANA
08:00 0.2 0.2 100 8 56   98.09     LegendNANA
09:00 0.4 0.4 100 8 54   97.96     LegendNANA
10:00 0.2 0.2 100 7 54   97.79     LegendNANA
11:00 -0.1 -0.1 100 7 65   97.67   -9 LegendNANA
12:00 0.0 0.0 100 7 59   97.57   -9 LegendNANA
13:00 0.1 0.1 100 7 54   97.48     LegendNANA
14:00 0.1 0.0 99 6 50   97.44     LegendNANA
15:00 0.1 -0.2 98 6 50   97.47     LegendNANA
16:00 0.1 -0.2 98 6 44   97.47     LegendNANA
17:00 0.3 -0.4 95 6 39   97.51     LegendNANA
18:00 0.2 0.0 99 6 37   97.57     LegendNANA
19:00 0.9 -0.1 93 6 35   97.61     LegendNANA
20:00 0.8 -0.1 94 6 33   97.69     LegendNANA
21:00 0.7 -0.2 94 6 35   97.76     LegendNANA
22:00 0.8 -0.5 91 6 32   97.85     LegendNANA
23:00 0.7 -0.4 92 5 32   97.96     LegendNANA

Notes on Data Quality.

Legend

  • E = Estimated
  • M = Missing
  • NA = Not Available
  • ‡ = Partner data that is not subject to review by the National Climate Archives
Date modified: